This demonstration page uses our WeatherBlox Daily Observations layout. Learn more.

39.92423, -83.80882

Hourly Observations for June 8, 2016

Temp ( °F °C ) Dew Point ( °F °C ) Humidity (%) Winds ( mph kmh ) Pressure ( in mb ) Visibility ( mi km ) Precip ( " mm )
12:56 am 00:56 Clear 57 13.8 49 9.4 75 75 NW 8 13 29.88 1012 10 16.0934 0 0
1:56 am 01:56 Mostly Cloudy 57 13.8 49 9.4 75 75 WNW 7 11 29.88 1012 10 16.0934 0 0
2:56 am 02:56 Partly Cloudy 55 12.7 49 9.4 81 81 WNW 6 9 29.88 1012 10 16.0934 0 0
3:56 am 03:56 Mostly Cloudy 55 12.7 49 9.4 81 81 WNW 7 11 29.89 1012 10 16.0934 0 0
4:56 am 04:56 Clear 53 11.6 49 9.4 86 86 WNW 9 15 29.92 1013 10 16.0934 0 0
5:56 am 05:56 Clear 51 10.5 48 8.8 89 89 NW 6 9 29.94 1014 10 16.0934 0 0
6:56 am 06:56 Sunny 52 11.1 49 9.4 89 89 WNW 5 7 29.96 1015 10 16.0934 0 0
7:56 am 07:56 Sunny 55 12.7 50 10 84 84 NW 7 11 29.99 1016 10 16.0934 0 0
8:56 am 08:56 Sunny 58 14.4 48 8.8 69 69 WNW 6 9 30.01 1016 10 16.0934 0 0
9:56 am 09:56 Sunny 61 16.1 45 7.2 56 56 W 9 15 30.02 1017 10 16.0934 0 0
10:56 am 10:56 Mostly Sunny 64 17.7 45 7.2 50 50 WNW 12 19 30.01 1016 10 16.0934 0 0
11:56 am 11:56 Partly Cloudy 65 18.3 45 7.2 49 49 W 10 17 30.01 1016 10 16.0934 0 0
12:56 pm 12:56 Partly Cloudy 67 19.4 44 6.6 43 43 W 12 19 30.01 1016 10 16.0934 0 0
1:56 pm 13:56 Mostly Sunny 69 20.5 43 6.1 39 39 W 10 17 30 1016 10 16.0934 0 0
2:56 pm 14:56 Mostly Sunny 71 21.6 44 6.6 38 38 W 10 17 30 1016 10 16.0934 0 0
3:56 pm 15:56 Sunny 72 22.2 44 6.6 37 37 W 14 22 29.99 1016 10 16.0934 0 0
4:56 pm 16:56 Mostly Sunny 74 23.3 41 5 31 31 WNW 10 17 29.98 1015 10 16.0934 0 0
5:56 pm 17:56 Sunny 74 23.3 42 5.5 32 32 W 9 15 29.97 1015 10 16.0934 0 0
6:56 pm 18:56 Sunny 73 22.7 43 6.1 34 34 WNW 12 19 29.97 1015 10 16.0934 0 0
7:56 pm 19:56 Sunny 72 22.2 43 6.1 35 35 WNW 9 15 29.98 1015 10 16.0934 0 0
8:56 pm 20:56 Sunny 67 19.4 45 7.2 45 45 WNW 5 7 29.99 1016 10 16.0934 0 0
9:56 pm 21:56 Clear 63 17.2 47 8.3 56 56 W 5 7 30 1016 10 16.0934 0 0
10:56 pm 22:56 Clear 61 16.1 45 7.2 56 56 NW 7 11 30.02 1017 10 16.0934 0 0
11:56 pm 23:56 Clear 60 15.5 44 6.6 56 56 NNW 7 11 30.02 1017 10 16.0934 0 0

Powered by AerisWeather